Espace membre
Imprimable
Challenges > Delhalle - Chatelet, 03/06/2007, BEL - La Chatelettaine
Liste des rapports > Delhalle - La Chatelettaine - 14.1km
Recherche: Page: [1]
118 Entrées
 
Les réclamations ne sont plus acceptées, les résultats sont considérés comme définitifs.
RangNrNomAgeIOCLigueEquipeRéelTempsTkmMoy.ScrPtsLocalité
1.11DUBOIS Michel50BELHERV52:3252:343:44 16.0915992WELKENRAEDT
2.2316DEMOL Guy54BELJOGGPLUS53:2353:243:48 15.8417975JETTE
3.848TENRET Daniel53BELBOUFFIOL56:1856:224:00 15.0136909GERPINNES
4.1088BAUWIN Dominique51BELRONVAU56:4956:524:02 14.8840896DION-VALMONT
5.675TRUYERS Hugo59BELDCLA57:0557:074:04 14.8143890LINKHOUT
6.2231GINESTRELLI William51BELESM57:4057:474:06 14.6447877CHATELINEAU
7.714MAILIER Christian51BELCRACESM57:4557:514:07 14.6248875ROUX
8.515GIULIANI Fernando56BELUACBOUFFIOL57:5858:004:07 14.5950870BOUFFIOULX
9.959BARBIEUX Patrice50BEL58:1158:144:08 14.5353864MALONNE
10.2397VERDOODT Gilbert51BELACP59:3159:354:14 14.2070831ASSE
11.557FONDU Jacques57BELFLEUESM59:4959:554:15 14.1277821MONT-SUR-MARCHIENNE
12.142GHEM Michel52BELTORTUES1:00:091:00:124:17 14.0580814BIERGHES
13.2360PILLEZ Alain51BELRCSC1:00:301:00:364:18 13.9690802
14.2209BOZ Renzo56BEL1:00:451:00:544:20 13.8993796ZELEM
15.1620HUME Yvan54BELNAC1:00:441:00:554:20 13.8994795NIVELLES
16.196TRULLEMANS Alain50BELRCNAMUR1:01:041:01:074:21 13.8497788BEEZ
17.519VANTSIOTIS Anasthase54BELFLEU1:01:441:01:484:23 13.69106771LE ROUX
18.1617PINDEVILLE Christian59BELRIWA1:01:461:02:004:24 13.65108769WAVRE
19.497WYNS Jos55BELHULSHEISTSE BE1:02:191:02:334:27 13.53115756HALLAAR
20.1599SCIEUR Jean-Pol52BELFLEU1:02:561:03:044:29 13.41120743WANFERCEE-BAULET
21.156DUMONT J.Luc50BELACLOST BERNARD1:03:001:03:094:29 13.40121741LA LOUVIERE
22.1037BEAU Christian55BELOSGASPIBOR1:03:141:03:324:31 13.32127734JURBISE
23.2277CIRELLI Mario55BELCRAC1:03:321:03:504:32 13.25133725JUMET
24.1333MARIEN Rik58BELVACH1:03:461:03:524:32 13.25134721HASSELT
25.1469QUINET J.Paul57BELFLEU1:03:511:03:594:33 13.22137718GILLY
26.692ROBERT Michel57BELBOUFFIOL1:03:521:04:064:33 13.20138717GERPINNES
27.1392DE MASI Gianni54BELFLEU1:04:101:04:144:34 13.17142710WANFARCEE BAULET
28.1322LEFEBVRE Daniel52BELETCHIEVR1:04:071:04:294:35 13.12143710CHIEVRES
29.426QUINET Bernard55BELFLEU1:04:281:04:374:35 13.09146703GILLY
30.2382STRUMELLE Jean-Michel50BELTORTUES1:04:401:04:504:36 13.05148698BIÉVÈNE
31.867POULIN Joel57BELCABWNAC1:04:481:04:594:37 13.02150695GLABAIS
32.2024CHARLES Claude50BELESM1:04:561:05:064:38 13.00154690MONTIGNY LE TILLEUL
33.2056GRIMONT Jean Michel51BELUAC DILA1:05:281:05:424:40 12.88165675GERPINNES
34.2032DENYS Andre51BEL1:05:411:05:594:41 12.82168670CHARLEROI
35.2003DEMIERBE Freddy53BEL1:06:061:06:214:43 12.75176658CHATELET
36.20DEGROOT Jean59BELFCHA1:07:211:07:334:48 12.52194629HANNUT
37.2002FRESCA Luigi54BELUACDILAVILE1:07:191:07:344:48 12.52195629CHATELET
38.2035GILLET Marc50BELJC HSH1:07:351:07:424:49 12.50198623MONT-SUR-MARCHIENNE
39.1714DELFOSSE Jacques51BELRCNAMUR1:07:431:07:594:50 12.44205616LES BOSCAILLES
40.513BILON Eusebe54BELESM1:08:001:08:304:52 12.35215606MARCHIENNE AU PONT
41.121WILMET Paul57BELARCH1:08:521:08:544:54 12.28225587CINEY
42.755VAN HEULENBERGHE Frank51BEL1:08:461:08:574:54 12.27226588GENT
43.33GEORGES François51BEL1:08:471:09:164:55 12.21233584IXELLES
44.2221FONTAINE Pol56BEL1:09:341:09:434:57 12.13238569CHATELINEAU
45.2191VENSENSIUS Michel57BELUACDILAVILE1:09:421:09:524:58 12.11242565CHATELINEAU
46.2300GAILLAT Alain54BELJOGGING NATURE1:10:081:10:205:00 12.03246556TRAZEGNIES
47.1561VAN LAETHEM Eloi55BELFLEUJOGGPLUS1:10:121:10:215:00 12.03247554CHATELINEAU
48.1122ZYLBERBERG Luc55BELJOGGANS1:09:531:10:245:00 12.02248558BRUXELLES
49.1304LOTENS Yvan52BELTORTUES1:10:111:10:255:00 12.01249553MESLIN L'EVEQUE
50.1555FIVET Alain54BEL1:10:051:10:305:00 12.00251554JAMBES
51.2292MALCOURANT Claude52BELFLEURUS1:10:261:10:425:01 11.97254547SAINT-MARTIN
52.2049LATINIS Eric50BELACCOACFBEAUR1:10:131:10:475:02 11.95257548WEPION
53.939GORIS Leo50BEL1:10:331:10:495:02 11.95258542MEERDONK
54.209GODEFRIDI Thierry56BEL1:10:491:11:055:03 11.90261537RIXENSART
55.346LELOUP Yves53BELFLEU1:10:581:11:095:03 11.89263534ST-AMAND
56.2361BIENFAIT Philippe51BELETETORTUES1:10:531:11:205:04 11.86269531PETIT-ENGHIEN
57.1667COLLIN Roger59BELSMAC1:11:001:11:315:05 11.83271528ST-SERVAIS
58.2268SANGLIER Gerard52BEL1:11:011:11:405:05 11.80272527MORNIMONT
59.915JOOSEN Johannes52BEL1:11:281:11:465:06 11.79273520WORTEL
60.317GUIRCHE Albert55BELSPIBOR1:12:201:12:355:09 11.66287499BOUSSU
61.743RATINCKX Michel50BELRIWAHERMATHENAE1:12:311:12:535:11 11.61294492BIERGES
62.2364DUO Pino53BELPINO1:13:011:13:105:12 11.56298483PONT-À-CELLES
63.1671TROCH Paul57BEL1:12:491:13:175:12 11.54302483GIBECQ
64.261BOZ Jean-Charles59BELUACDILAVILE1:13:201:13:355:14 11.50305474CHATELINEAU
65.414PEGORARO Roberto51BELUACDILAVILE1:13:291:13:435:14 11.48307471CHATELET
66.2250SBRO Salvatore54BELESM1:13:341:13:495:15 11.46309469GILLY
67.2381DE VYLDER Luc51BELAXA TEAM1:13:321:13:525:15 11.45310469SILLY
68.242VAN ESPEN Michel52BELACLO1:13:521:14:145:16 11.40317460HAINE SAINT PIERRE
69.2018IURLARDO Valter53BEL1:14:251:14:395:18 11.33322449JUMET
70.55ROBERTI DE WINGHE Max52BELLACDELHALLE1:14:331:14:505:19 11.31324446ARCHENNES
71.2358DENIS Christian54BEL1:14:471:14:565:19 11.29327441VERVIERS
72.2356ABRAHAM Luc50BELUSBW RT1:14:401:15:035:20 11.27329441WATERLOO
73.174VANDENBERGHE Marnix59BELANTILOB1:14:391:15:145:21 11.25331440LOUVAIN-LA-NEUVE
74.51VAN POPERING Emile54BELKAPUCIJN1:15:191:15:345:22 11.20334429HALLE
75.2279VANDERHAEGEN Jacques50BEL1:15:201:15:405:22 11.18336428ELLEZELLES
76.993LELOUP Stephan53BELRIWA1:15:421:15:545:23 11.15338422ROSIERES
77.2053MINET Freddy55BELMETTET1:15:371:16:015:24 11.13339422DENEE
78.2399EDEBOUW Philippe50BELJC METTET1:15:411:16:015:24 11.13340421BIESME
79.1878ROMAIN Bernard50BELJAMES1:15:321:16:015:24 11.13341422CHASTRE
80.2391DUCHENE Jean-Pierre51BELRONVAU1:15:481:16:025:24 11.13342418INCOURT
81.155AKKERMANS Francois57BELBRASS1:15:461:16:085:24 11.11344417BRASSCHAAT
82.2210BARBIERI Giovanni56BELBOUFFIOLS1:16:171:16:225:25 11.08351406ONT DE LOUP
83.2044PANNEELS Jean Jacques55BELCS DYLE GE1:15:521:16:345:26 11.05355409MELLERY
84.2038MEYS Jean-Luc51BELUACDILAVILE1:16:361:16:475:27 11.02359397CHATELINEAU
85.1780TERMOLLE Frederic55BELJOGGANS1:16:401:16:585:28 10.99364393ST PIETERS LEEUW
86.1153MASSART Victor54BELACLOULTRAMAR1:16:401:17:035:28 10.98365392COUILLET
87.2323LECLERCQ Daniel50BEL1:16:441:17:145:29 10.95368390THINES
88.2311TRAN-NGOC Emmanuel57BELVAFA1:17:141:17:375:31 10.90373380UCCLE
89.665LACAILLE Guy55BELNAC1:17:371:17:595:32 10.85380371NIVELLES
90.1035FERAUCHE Jean Marie58BELUACDILAVILE1:17:541:18:025:33 10.84382366FRASNES LEZ GOSSELIES
91.894LOUCHE Bernard52BELJAMES1:18:041:18:305:35 10.78387360MONT-SAINT-GUIBERT
92.745POMES Jean-Paul57BELHRC1:18:431:19:155:38 10.68395347NOBRESSART
93.768MAKA Marcel52BELSERUNNER1:18:591:19:175:38 10.67396343TINLOT
94.2203DELIZEE Michel57BELJCCS1:18:591:19:235:38 10.66398342GEDINNE
95.2369METILLON Henri50BELUSBR1:19:181:19:445:40 10.61402335
96.2224LEONARD Francis53BELUACUAC DILAVILE1:20:251:20:375:44 10.49411315RANSART
97.869GENOT Yves51BELENJAMBEE1:20:361:20:535:45 10.46415311BRUXELLES
98.2418BODSON Etienne57BELESM1:20:301:21:045:45 10.44419310LOBBES
99.488COLLIN Jean-Marc55BEL1:20:421:21:115:46 10.42421306CHATELET
100.2317GEUNS Ludo55BEL1:21:181:21:315:47 10.38426295PEER
101.1031DEWIGNE Bernard50BELGLOBTROT1:21:071:21:465:48 10.35428296CHASTRE
102.2074VANVELTHEM Bernard50BELUACDILAVILE1:21:371:21:475:49 10.34429290SPY
103.2374GERACI Marcello52BEL1:21:461:21:585:49 10.32433285
104.2276BRUNELLI Roland56BELING1:21:581:22:275:51 10.26441278
105.2254PAINBLANC Didier52BELJC THIMÉON1:23:091:23:495:57 10.09456254THIMEON
106.2212BOUCHERAI Alain51BEL1:23:541:24:336:00 10.01461241CHÂTELINEAU
107.249PIRSON Patrice50BELJCCS1:24:141:24:556:02 9.96467234SART-CUSTINNE
108.139SOHNLE Reinhold55BELTORTUES1:24:481:25:256:04 9.90473223
109.2368LEFEVRE Robert54BEL1:27:521:28:186:16 9.58493175AUVELAIS
110.527ARNOULD Edouard53BELENJWOL1:29:121:29:336:22 9.45499155BRUXELLES
111.785SACRE Claude51BELSERSERUNNER1:35:001:35:196:46 8.8853370ANGLEUR
112.2271CARDILLO G Mario57BELESM1:35:281:35:356:47 8.8553563
113.559MORADIELLOS Fernando52BELIXELJOGPLUS1:35:081:35:486:48 8.8353766UCCLE
114.1463COPPE Stephane53BEL1:36:331:36:516:53 8.7454049BRUXELLES
115.2354VLAMINCK Andre53BELLA HULPE1:38:131:38:587:02 8.5554528GOUY-LEZ-PIÉTON
116.1318DE BLIECK Philippe55BEL1:43:421:44:067:23 8.135495BRUXELLES
117.2340DAVE Richard57BELJCTHIMEON1:53:271:54:108:06 7.415551MARCINELLE
DNF1628CHAVATTE Roger59BELACGSCHENDELBEKE
DNF: abandon; DSQ: disqualifié; Vitesse en km/h
Page: [1]